Temp
5 5 5 5 5 5 5 5 5 5 6 5 5 5 5 5 5 5 5 5 5 5 5 6 6 5 5 5 5 5 4 4 3 3 2 3 3 3 3 3 3 2 2 1 2
5 5 5 5 5 5 5 5 5 5 5 5 5 5 5 5 5 5 5 5 5 5 5 5 5 5 5 5 5 4 4 3 3 3 2 2 2 2 1 1 1 1 0 -0 1
4 4 5 5 5 5 5 5 5 5 5 5 5 5 5 5 5 5 5 5 5 5 5 5 5 5 5 4 4 4 3 3 3 2 2 2 1 1 0 -1 -1 -1 -2 -2 -2
4 4 4 4 4 4 4 4 4 5 5 5 5 5 5 5 4 4 4 4 4 4 5 5 5 4 4 4 4 4 3 2 2 2 2 1 0 -1 -2 -3 -3 -4 -4 -3 -3
3 3 4 4 4 4 4 4 4 4 4 4 5 4 4 4 4 4 4 4 4 4 4 4 4 4 4 4 4 3 2 2 2 1 1 -0 -1 -3 -3 -5 -4 -5 -5 -5 -5
3 3 3 3 3 3 3 4 4 4 4 4 4 4 4 4 4 4 4 4 4 4 4 3 4 4 3 3 3 2 2 2 1 0 -0 -1 -1 -5 -4 -5 -5 -5 -5 -6 -6
2 3 3 3 3 3 3 3 3 4 4 4 4 4 4 4 4 3 3 3 3 4 3 3 3 3 3 3 2 2 2 1 1 -0 -1 -2 -1 -5 -6 -6 -6 -7 -7 -7 -7
2 2 2 2 2 2 3 3 3 3 3 3 3 4 4 4 4 3 3 3 3 3 3 3 3 2 2 2 1 1 0 -1 -2 -1 -2 -4 -2 -6 -6 -6 -7 -8 -7 -7 -7
2 2 2 2 2 2 2 2 2 3 3 3 3 3 3 3 3 3 3 3 3 3 3 3 2 2 2 1 -1 -1 -1 -1 -3 -3 -4 -5 -4 -4 -6 -6 -6 -7 -7 -7 -7
1 1 1 1 1 1 1 2 2 2 2 2 2 2 2 3 3 2 2 2 2 2 2 2 2 1 1 -1 -1 -1 -2 -2 -3 -4 -5 -5 -3 -5 -8 -8 -7 -7 -7 -7 -8
0 1 1 1 1 1 1 1 1 1 2 1 1 2 2 2 2 2 2 2 1 2 2 2 1 1 -1 0 -1 -1 -1 -3 -3 -4 -4 -5 -3 -4 -7 -9 -6 -7 -7 -8 -8
0 0 0 0 0 0 0 0 -0 -0 1 1 2 2 2 1 1 1 1 1 1 2 1 1 1 1 0 -1 -1 -2 -2 -3 -3 -5 -6 -5 -3 -4 -7 -6 -7 -7 -8 -9 -9
-0 -0 0 0 0 -0 -0 -1 -1 -1 -0 1 2 2 1 0 0 1 1 1 1 1 1 1 0 1 -0 -1 -1 -2 -2 -3 -4 -6 -6 -6 -4 -5 -5 -6 -7 -8 -8 -9 -9
-0 -0 -1 -0 -0 -1 -1 -1 -1 -1 -1 0 0 1 0 -0 -0 1 1 -0 0 1 1 1 2 0 -1 -1 -2 -2 -2 -3 -5 -8 -5 -8 -5 -5 -7 -6 -7 -9 -9 -10 -10
-1 -1 -1 -1 -1 -1 -1 -1 -1 -2 -1 -0 -0 0 -0 -0 -0 1 0 -0 -0 -0 -0 1 1 0 -1 -1 -2 -2 -3 -3 -7 -9 -10 -9 -9 -5 -7 -8 -10 -10 -10 -10 -10
-1 -1 -2 -3 -2 -2 -2 -2 -2 -2 -1 -0 -0 -0 -0 -1 -0 -0 -0 -1 -1 -0 0 1 1 -0 -1 -1 -2 -3 -2 -5 -6 -10 -8 -7 -7 -4 -6 -8 -10 -10 -10 -10 -10
-2 -2 -2 -3 -2 -2 -2 -2 -2 -2 -0 -1 -1 -1 -1 -1 -2 -2 -1 -1 -1 -1 0 0 1 -0 -1 -2 -2 -3 -3 -2 -3 -4 -2 -9 -9 -6 -7 -9 -9 -10 -11 -10 -9
-2 -2 -2 -2 -3 -3 -2 -3 -2 -1 -1 -1 -2 -2 -3 -3 -3 -2 -2 -1 -1 -1 -1 -1 -1 -0 -1 -2 -3 -4 -5 -4 -4 -2 -2 -7 -8 -6 -7 -9 -11 -10 -10 -9 -9
-2 -2 -2 -2 -3 -3 -3 -4 -3 -2 -2 -1 -2 -3 -3 -3 -2 -2 -1 -1 -1 -1 -1 -1 -1 -0 -1 -2 -4 -5 -7 -6 -9 -10 -10 -6 -6 -7 -8 -9 -10 -9 -9 -9 -8
-1 -2 -2 -2 -2 -3 -4 -3 -3 -3 -2 -2 -2 -3 -3 -4 -4 -3 -1 -1 -1 -1 -1 -1 -2 -1 -1 -3 -4 -5 -6 -7 -9 -6 -5 -2 -4 -6 -7 -9 -9 -9 -9 -8 -8
-2 -3 -2 -3 -4 -4 -4 -4 -3 -3 -3 -3 -3 -3 -3 -3 -4 -4 -3 -2 -2 -2 -2 -2 -3 -2 -3 -2 -4 -5 -7 -6 -7 -9 -6 -5 -3 -5 -7 -8 -8 -9 -8 -8 -7
-2 -3 -3 -5 -5 -4 -4 -4 -4 -4 -4 -4 -3 -4 -4 -4 -5 -6 -4 -3 -2 -2 -2 -2 -3 -3 -2 -3 -4 -5 -6 -7 -7 -8 -9 -10 -8 -5 -6 -7 -8 -8 -8 -7 -7
-3 -3 -3 -4 -5 -5 -5 -4 -4 -4 -4 -4 -4 -4 -5 -5 -5 -5 -5 -3 -3 -3 -3 -3 -4 -4 -2 -3 -4 -5 -5 -6 -7 -9 -8 -7 -3 -4 -6 -7 -7 -7 -6 -6 -6
-3 -4 -4 -4 -6 -5 -5 -5 -4 -4 -4 -4 -4 -5 -5 -5 -5 -5 -5 -4 -4 -3 -4 -4 -4 -3 -1 -2 -3 -5 -5 -6 -8 -9 -7 -7 -4 -4 -6 -6 -6 -5 -6 -6 -6
-3 -4 -4 -5 -6 -6 -6 -5 -5 -5 -5 -5 -5 -5 -5 -6 -5 -6 -6 -5 -4 -4 -4 -5 -5 -3 -2 -3 -3 -3 -4 -5 -6 -6 -7 -3 -4 -5 -6 -6 -5 -5 -6 -7 -7
-4 -4 -5 -5 -6 -7 -7 -6 -6 -6 -6 -5 -5 -5 -6 -6 -6 -6 -8 -6 -5 -4 -5 -5 -5 -5 -3 -2 -3 -2 -3 -3 -4 -4 -4 -4 -4 -4 -5 -5 -5 -5 -5 -6 -7
-4 -5 -5 -5 -6 -7 -7 -7 -6 -7 -5 -6 -6 -6 -6 -6 -6 -6 -8 -6 -6 -6 -6 -6 -6 -6 -5 -3 -3 -2 0 -1 -1 -2 -3 -3 -4 -4 -4 -5 -4 -4 -5 -5 -5
Height
3122 3121 3119 3117 3116 3115 3113 3112 3110 3108 3105 3104 3102 3101 3098 3096 3093 3091 3090 3088 3085 3084 3084 3082 3081 3081 3081 3081 3081 3080 3081 3080 3079 3077 3076 3072 3071 3069 3066 3066 3064 3061 3058 3054 3048
3120 3119 3118 3116 3114 3114 3112 3110 3108 3106 3104 3103 3101 3099 3096 3094 3091 3089 3088 3086 3084 3082 3082 3080 3080 3079 3079 3078 3078 3078 3077 3076 3074 3072 3071 3068 3065 3063 3060 3058 3056 3055 3053 3045 3042
3119 3118 3116 3116 3114 3112 3111 3109 3107 3105 3103 3101 3100 3097 3094 3092 3090 3087 3085 3084 3082 3080 3079 3078 3077 3077 3076 3076 3076 3074 3073 3071 3068 3066 3064 3062 3059 3056 3052 3047 3047 3042 3042 3039 3036
3117 3116 3115 3113 3112 3111 3109 3108 3105 3103 3101 3099 3097 3095 3092 3090 3090 3086 3083 3081 3080 3078 3077 3076 3076 3075 3074 3073 3072 3071 3069 3066 3063 3060 3058 3055 3050 3046 3042 3040 3035 3033 3031 3030 3028
3115 3114 3113 3111 3110 3109 3107 3106 3103 3101 3098 3097 3094 3092 3090 3088 3086 3082 3082 3079 3077 3076 3075 3074 3074 3072 3072 3070 3069 3067 3065 3062 3059 3055 3051 3046 3043 3037 3031 3029 3024 3023 3021 3020 3020
3112 3111 3110 3109 3107 3106 3104 3102 3100 3098 3096 3093 3091 3089 3087 3086 3083 3080 3078 3078 3076 3074 3073 3072 3071 3070 3068 3067 3065 3063 3060 3057 3053 3049 3044 3039 3034 3027 3026 3021 3019 3015 3014 3012 3010
3108 3107 3106 3106 3104 3102 3101 3099 3097 3094 3092 3090 3087 3085 3083 3083 3079 3076 3075 3075 3074 3072 3071 3069 3068 3067 3065 3063 3061 3058 3056 3051 3045 3043 3040 3031 3025 3020 3019 3018 3015 3011 3008 3006 3004
3106 3105 3103 3102 3100 3098 3097 3095 3093 3091 3088 3086 3083 3081 3078 3077 3076 3074 3072 3071 3071 3069 3068 3066 3065 3063 3062 3059 3057 3054 3051 3051 3046 3037 3033 3029 3021 3022 3014 3013 3009 3005 3002 3001 2997
3104 3103 3100 3099 3097 3094 3092 3090 3089 3087 3084 3082 3080 3077 3074 3073 3072 3072 3070 3068 3067 3067 3065 3063 3062 3060 3059 3056 3054 3050 3049 3046 3042 3031 3028 3025 3016 3015 3009 3006 3003 3000 2997 2994 2992
3100 3098 3097 3095 3093 3091 3089 3086 3084 3082 3080 3077 3075 3075 3072 3070 3068 3067 3066 3065 3064 3063 3062 3060 3059 3057 3055 3054 3054 3050 3044 3040 3037 3033 3025 3020 3010 3009 3006 3001 2997 2994 2992 2989 2987
3096 3095 3093 3091 3089 3087 3086 3084 3083 3080 3076 3074 3072 3069 3067 3065 3064 3063 3062 3061 3060 3060 3058 3057 3056 3053 3053 3050 3048 3044 3040 3034 3032 3025 3017 3011 3004 3002 3000 2996 2992 2990 2987 2985 2982
3093 3091 3090 3089 3086 3084 3082 3080 3078 3076 3070 3068 3065 3062 3060 3059 3059 3058 3059 3059 3057 3056 3055 3055 3051 3048 3048 3045 3043 3039 3035 3031 3025 3018 3014 3004 2997 2995 2993 2991 2989 2986 2983 2979 2975
3089 3087 3086 3084 3083 3081 3080 3078 3076 3072 3066 3059 3057 3054 3055 3055 3053 3054 3055 3054 3053 3052 3052 3050 3048 3045 3044 3041 3038 3036 3032 3026 3021 3011 3005 3000 2992 2990 2989 2987 2985 2982 2978 2974 2968
3084 3083 3082 3081 3081 3078 3077 3075 3072 3068 3062 3056 3051 3048 3049 3050 3050 3050 3050 3052 3050 3049 3048 3045 3042 3041 3040 3038 3036 3031 3027 3021 3013 3009 3008 3001 2997 2990 2985 2984 2981 2977 2973 2969 2962
3080 3080 3078 3076 3076 3074 3074 3071 3069 3067 3063 3055 3050 3049 3048 3049 3049 3047 3047 3047 3046 3046 3047 3042 3039 3037 3035 3035 3032 3029 3022 3016 3007 3004 3003 3001 3001 2986 2985 2982 2978 2973 2968 2963 2958
3075 3074 3072 3072 3072 3072 3070 3069 3068 3068 3057 3052 3049 3048 3047 3047 3046 3045 3045 3044 3043 3041 3040 3038 3036 3034 3032 3031 3029 3024 3019 3010 3004 3003 3003 2998 2998 2986 2983 2981 2976 2970 2964 2959 2954
3070 3069 3068 3068 3068 3068 3067 3066 3067 3060 3055 3051 3049 3047 3046 3044 3042 3040 3040 3040 3040 3039 3035 3034 3031 3030 3029 3028 3026 3023 3019 3012 3005 3000 2995 2997 2995 2982 2980 2978 2973 2966 2959 2953 2949
3064 3064 3063 3063 3064 3064 3063 3063 3059 3053 3051 3048 3046 3045 3042 3041 3039 3037 3036 3035 3035 3036 3034 3032 3029 3027 3027 3026 3024 3021 3020 3020 3015 3001 2996 2994 2989 2980 2977 2973 2966 2957 2950 2947 2945
3059 3058 3058 3059 3060 3061 3061 3059 3053 3050 3048 3045 3044 3040 3037 3035 3036 3036 3033 3032 3031 3032 3034 3030 3026 3024 3024 3023 3023 3019 3019 3018 3015 3011 3008 2988 2984 2978 2974 2968 2961 2953 2947 2944 2942
3055 3054 3054 3054 3054 3056 3055 3051 3048 3046 3044 3041 3039 3037 3035 3033 3034 3034 3031 3029 3028 3029 3029 3028 3026 3021 3021 3021 3019 3018 3017 3014 3014 3008 2998 2983 2981 2976 2971 2965 2958 2950 2945 2943 2940
3052 3051 3051 3049 3050 3051 3049 3047 3043 3040 3038 3036 3034 3033 3032 3031 3029 3031 3030 3028 3026 3026 3027 3026 3025 3021 3019 3016 3015 3015 3013 3012 3012 3012 3007 2993 2978 2972 2969 2962 2954 2948 2943 2941 2938
3047 3049 3047 3046 3048 3047 3045 3043 3041 3037 3035 3034 3032 3030 3028 3027 3026 3026 3025 3025 3024 3024 3024 3024 3021 3017 3015 3013 3012 3012 3010 3009 3009 3009 3008 3005 2981 2971 2967 2960 2953 2946 2942 2938 2935
3043 3045 3043 3042 3043 3043 3042 3040 3037 3035 3034 3032 3030 3028 3026 3025 3025 3022 3022 3022 3021 3022 3021 3021 3019 3016 3010 3012 3010 3008 3006 3005 3004 3004 3001 3001 2979 2972 2967 2960 2952 2945 2941 2937 2935
3040 3040 3039 3039 3039 3039 3038 3037 3035 3034 3032 3030 3028 3025 3023 3021 3021 3019 3019 3020 3019 3019 3019 3019 3015 3014 3011 3009 3007 3004 3002 3001 3001 3001 2995 2987 2976 2975 2966 2959 2952 2947 2942 2938 2934
3035 3036 3036 3036 3037 3036 3036 3035 3033 3031 3030 3028 3025 3023 3021 3019 3017 3015 3015 3017 3016 3016 3016 3016 3012 3009 3008 3005 3002 2999 2997 2995 2993 2993 2991 2982 2977 2973 2966 2960 2953 2949 2944 2940 2937
3032 3033 3032 3033 3033 3033 3033 3032 3031 3029 3028 3025 3023 3021 3019 3016 3016 3014 3014 3015 3014 3014 3013 3012 3010 3006 3001 2999 2996 2993 2991 2989 2988 2986 2982 2980 2976 2973 2967 2961 2956 2952 2948 2945 2942
3026 3028 3028 3029 3029 3030 3030 3029 3028 3025 3024 3022 3021 3018 3016 3014 3011 3011 3011 3012 3012 3011 3011 3011 3009 3006 2999 2997 2994 2988 2987 2986 2985 2983 2981 2978 2977 2973 2968 2962 2958 2954 2951 2948 2945
Wind_Speed
9 9 8 8 9 10 11 12 12 13 14 14 14 16 16 17 15 15 13 10 14 12 10 6 5 6 6 5 4 5 5 7 10 12 10 25 25 27 31 32 33 36 40 42 50
10 10 10 10 9 10 12 12 12 13 14 15 15 16 17 17 17 17 7 14 11 8 6 6 6 6 4 4 4 6 7 8 15 18 22 25 28 32 36 35 37 38 38 44 47
11 11 11 11 11 11 12 12 14 15 15 15 16 16 17 17 19 7 11 14 10 7 7 7 7 5 4 4 6 7 9 15 21 22 24 27 32 33 37 39 33 40 37 39 40
13 13 12 12 12 12 13 14 15 16 17 17 17 18 18 17 14 16 14 12 10 7 7 7 6 5 4 5 9 11 13 19 21 24 26 30 34 36 34 34 34 31 33 32 33
14 14 14 13 12 13 15 16 17 17 17 17 18 19 20 19 17 15 13 12 9 8 7 6 6 5 5 8 11 10 19 19 23 22 28 33 32 31 32 23 29 30 30 30 30
14 15 16 15 16 17 17 18 19 20 19 19 19 19 21 21 19 15 12 12 9 8 6 6 7 6 6 9 9 17 18 22 19 19 32 32 32 25 23 27 27 30 30 30 32
15 16 17 18 18 18 19 19 20 20 20 20 20 21 21 21 18 14 11 11 10 9 7 7 8 7 8 9 13 18 20 19 23 30 29 34 29 19 17 25 27 29 29 30 31
18 17 18 18 19 19 20 20 21 20 21 20 20 22 23 22 16 12 13 11 10 9 8 8 9 10 10 12 17 12 11 14 16 31 31 31 27 12 28 27 30 31 27 29 29
21 21 20 20 21 21 21 23 23 23 22 22 22 22 24 16 13 16 15 12 11 10 9 9 10 11 12 13 11 12 13 17 16 32 33 26 29 28 29 27 25 26 27 29 27
20 20 21 21 22 23 23 23 24 25 22 21 21 19 16 17 21 20 16 13 12 11 10 10 11 12 13 6 8 13 17 19 21 18 29 32 38 31 23 25 28 26 27 26 28
19 19 18 19 19 20 21 22 23 25 21 21 23 27 27 26 25 18 16 14 12 11 11 9 13 14 12 15 17 20 23 26 23 27 33 28 39 30 24 25 24 24 25 25 31
18 19 18 20 20 19 19 20 21 24 29 25 27 28 29 27 24 18 15 14 11 10 9 13 15 16 16 17 18 21 23 24 23 21 38 32 33 29 24 21 20 21 21 25 32
19 19 19 19 19 19 19 20 22 24 28 32 27 28 26 23 21 16 15 14 12 12 13 15 17 17 17 18 20 20 21 25 31 35 25 19 21 10 14 15 18 19 21 25 35
18 19 17 18 19 19 20 21 21 23 20 16 14 14 15 14 14 14 15 14 14 12 13 13 13 15 16 17 18 23 22 30 33 26 7 12 8 12 14 14 18 18 22 27 32
20 19 18 19 19 19 20 19 19 16 6 7 8 10 7 8 7 10 12 15 16 16 14 14 17 17 16 15 17 19 25 30 28 10 13 4 4 7 14 16 16 21 27 29 33
22 20 19 17 20 20 18 14 16 6 7 6 6 6 7 9 12 14 15 15 15 17 18 20 18 18 12 14 19 18 25 20 13 5 4 8 2 9 8 13 19 29 33 34 27
21 20 17 16 19 19 20 16 12 8 6 5 6 7 10 14 13 16 18 18 14 6 9 11 15 14 13 12 17 16 18 6 3 2 3 4 8 13 15 18 25 28 33 27 15
22 22 21 19 20 17 20 22 10 10 13 15 16 18 19 23 25 21 18 16 15 15 12 6 7 7 8 12 11 11 8 2 7 6 11 12 7 7 17 27 31 35 27 13 12
21 23 23 20 20 20 21 18 11 16 14 18 20 21 19 20 18 12 14 17 14 14 8 5 7 10 13 12 12 8 2 6 5 7 5 7 7 17 11 33 36 33 21 12 12
18 20 20 16 18 16 17 24 28 24 28 29 24 11 11 10 9 6 7 7 10 14 11 7 8 11 10 13 10 9 6 5 1 5 7 7 10 12 22 36 39 30 16 10 9
19 20 15 12 12 14 19 23 21 25 27 20 15 15 17 16 13 14 10 9 10 10 12 11 8 9 11 7 11 9 6 3 3 3 4 7 8 18 28 42 38 27 13 7 7
19 18 12 12 11 12 14 17 16 21 14 14 13 14 16 17 12 14 14 11 7 10 11 12 8 10 12 15 13 13 12 8 3 4 6 5 13 21 35 41 34 21 9 6 7
18 18 15 13 11 11 12 11 13 8 11 11 10 15 15 14 8 11 13 12 13 12 7 4 5 8 6 5 8 11 11 12 11 9 9 3 11 33 37 33 26 13 7 4 5
18 11 9 13 7 7 8 11 8 11 11 9 15 14 14 16 19 11 9 7 7 10 12 13 14 14 11 16 21 25 24 18 13 6 5 19 28 29 31 27 19 11 7 3 5
18 13 13 7 8 9 8 9 9 12 8 14 12 13 13 12 14 16 20 19 17 16 16 13 14 18 20 23 28 29 25 23 22 19 13 22 28 21 24 22 16 13 9 5 5
16 14 14 13 12 6 7 8 8 11 12 15 12 16 16 16 17 9 6 8 10 11 11 13 13 17 27 21 16 22 21 17 19 21 22 18 20 15 21 19 16 11 10 10 9
16 15 13 11 11 10 5 8 12 12 9 11 16 19 20 16 17 19 16 18 18 18 16 14 12 11 8 13 22 12 4 10 13 14 15 15 13 13 18 17 14 11 10 9 11
Wind_Direction
309 306 310 317 323 330 333 333 331 330 330 331 328 326 328 326 323 316 312 310 311 311 309 311 321 326 327 335 337 322 267 271 271 289 275 293 292 293 291 286 283 281 279 278 274
306 304 302 304 313 321 326 328 328 327 325 323 322 325 327 325 323 316 301 319 314 312 312 327 329 334 340 334 318 313 291 262 283 287 292 292 291 290 288 288 285 282 277 274 282
304 301 298 300 305 313 319 324 326 324 319 317 315 319 323 323 324 311 306 318 316 317 323 329 334 339 330 312 316 306 283 297 299 299 295 293 296 294 293 286 288 279 282 279 280
304 303 299 297 301 309 315 319 323 321 315 311 313 315 319 321 321 313 304 312 309 312 332 331 330 319 301 305 318 309 307 307 302 303 301 304 299 296 285 287 285 281 282 280 278
300 300 299 296 293 298 307 313 319 321 316 309 308 310 313 314 316 314 304 307 304 305 313 321 309 302 281 313 316 304 315 309 304 303 309 304 303 297 289 285 296 290 288 285 282
294 296 295 293 292 295 299 304 311 314 314 308 305 304 307 307 312 307 297 303 301 299 303 303 296 297 281 311 309 318 310 308 301 308 315 308 314 294 299 296 297 296 293 293 296
287 288 291 292 292 294 298 302 304 308 308 306 301 299 299 303 306 299 298 302 299 299 300 291 290 290 295 308 310 314 316 317 320 321 313 319 329 319 285 302 297 292 292 292 294
288 285 284 285 288 292 295 299 301 302 304 304 300 296 293 299 297 291 301 294 292 299 296 289 287 284 294 307 317 312 323 329 317 319 319 318 308 307 289 293 295 289 290 293 298
291 289 288 289 291 292 294 297 299 299 297 296 294 293 291 287 289 295 294 288 285 294 295 287 283 283 289 313 320 319 310 310 316 317 315 311 300 301 298 296 292 287 290 298 296
295 293 292 293 294 295 297 298 300 299 296 293 290 285 276 283 291 292 287 285 277 288 291 284 282 281 281 302 280 292 307 306 308 310 296 291 297 300 287 274 290 285 292 295 296
299 300 299 298 297 298 300 300 304 302 296 291 285 282 281 282 284 281 280 281 275 278 287 286 285 282 251 285 298 307 309 309 310 297 309 305 303 297 284 276 286 288 294 298 302
300 301 302 299 298 301 303 304 305 302 299 293 287 281 277 275 274 270 268 274 270 273 282 289 293 268 274 288 305 311 309 311 306 317 307 308 302 300 279 275 278 288 292 301 311
296 297 298 298 297 299 306 307 307 307 305 291 281 275 269 266 262 259 264 265 263 264 280 279 276 281 283 295 307 311 306 314 306 313 322 307 310 282 277 275 281 283 294 306 319
290 290 292 293 293 296 302 302 305 314 306 285 276 272 261 251 258 259 262 254 260 272 282 284 277 287 282 292 305 310 315 319 313 316 305 318 296 304 280 275 286 280 300 312 323
283 283 286 292 291 295 305 304 308 313 301 284 275 267 258 216 262 271 268 261 263 268 272 269 284 292 285 286 304 308 317 319 310 307 310 192 265 270 277 288 284 285 303 308 323
284 279 281 277 283 298 302 312 318 299 245 281 290 282 260 263 276 280 278 269 268 269 270 268 276 285 279 292 308 311 327 318 315 320 271 189 231 282 259 300 294 302 301 306 313
281 283 282 282 285 290 285 290 298 223 285 272 299 299 289 292 294 300 289 270 255 272 273 274 275 274 279 299 323 324 349 316 280 233 306 197 269 267 302 310 315 307 304 306 316
274 277 280 283 277 281 281 298 250 255 253 273 279 274 261 264 267 278 277 269 252 241 269 265 279 270 278 303 307 316 25 39 299 313 308 277 247 268 310 326 335 329 324 323 332
274 273 274 278 276 277 288 292 264 275 266 270 292 286 281 265 256 278 281 260 253 227 232 266 265 277 279 291 316 319 347 337 256 277 282 241 284 293 300 341 341 338 328 333 337
279 279 281 288 276 267 269 267 277 267 286 276 281 259 262 245 238 271 272 274 241 225 237 274 281 282 276 289 293 294 312 327 25 310 302 304 301 270 322 338 344 341 333 328 332
281 280 300 288 276 282 279 281 298 299 284 265 263 262 267 266 246 255 253 271 247 237 243 274 264 277 291 281 286 284 282 273 283 208 298 311 313 311 331 339 342 343 340 308 309
276 279 287 278 272 274 279 292 302 303 304 289 280 285 281 270 266 256 245 237 265 246 250 273 276 271 282 288 283 274 271 267 226 176 244 264 277 321 334 338 343 346 342 277 270
267 271 277 280 265 271 287 296 302 326 337 307 307 301 294 278 264 262 252 258 259 253 253 248 262 302 285 288 297 288 294 275 266 265 235 251 290 325 330 340 349 352 343 282 263
262 266 275 289 270 265 304 311 321 321 314 307 319 318 303 286 276 263 258 268 273 269 256 270 270 250 257 282 292 291 292 286 260 234 244 262 303 338 336 346 354 355 344 283 250
260 258 262 254 244 264 295 296 315 325 306 317 309 330 313 287 279 273 258 271 276 271 266 264 270 276 284 286 290 288 283 283 267 272 259 291 304 340 346 357 357 4 341 316 296
250 249 260 256 269 278 271 289 294 310 310 309 304 320 318 289 275 252 252 275 282 284 273 267 272 294 301 300 291 294 293 279 281 278 285 296 316 342 351 2 5 1 356 1 9
253 251 253 259 254 272 270 270 283 299 299 299 305 306 312 307 279 263 248 268 266 275 279 276 279 307 286 305 309 300 320 309 307 297 293 300 321 343 354 8 20 22 23 36 47